Home   Weather   Khan Yunis   Past weeks

Flag for Palestinian Territories Past Weather in Khan Yunis, Gaza Strip, Palestinian Territories — Yesterday and Last 2 Weeks

64 °F


Feels Like: 64 °F
Forecast: 71 / 80 °F
Wind: No wind

Location: El Arish

Current Time: Oct 21, 2016 at 3:30:16 AM

Latest Report: Oct 21, 2016 at 2:00 AM

Visibility: 10 mi

Pressure: 29.95 "Hg

Humidity: 88%

Dew Point: 61 °F

Location of Khan YunisLocation

Past Weather in Khan Yunis — Graph


Khan Yunis Temperature Yesterday

Maximum temperature yesterday: 84 °F (at 12:00 PM)
Minimum temperature yesterday: 59 °F (at 7:00 AM)
Average temperature yesterday: 72 °F

High & Low Weather Summary for the Past Weeks

High90 °F (Oct 9, 1:00 PM)100% (Oct 15, 6:00 AM)30.07 "Hg (Oct 15, 6:00 AM)
Low59 °F (Oct 20, 7:00 AM)38% (Oct 9, 1:00 PM)29.86 "Hg (Oct 12, 3:00 PM)
Average75 °F72%29.97 "Hg
* Reported Oct 6 1:00 AM — Oct 21 1:00 AM, Khan Yunis, Weather by CustomWeather, © 2016

Note: Actual official high and low records may vary slightly from our data, if they occured in-between our weather recording intervals... More about our weather records


Khan Yunis Weather History for the Previous 24 Hours

Scroll right to see more
Time TempWeatherWind HumidityBarometerVisibility
1:00 AM
Fri, Oct 21
64 °FClear.1 mph88%29.95 "Hg10 mi
12:00 AM66 °FClear.3 mph83%29.92 "Hg10 mi
11:00 PM
Thu, Oct 20
68 °FClear.No wind78%29.95 "Hg10 mi
10:00 PM70 °FClear.No wind73%29.95 "Hg10 mi
9:00 PM72 °FClear.2 mph73%29.92 "Hg10 mi
8:00 PM73 °FClear.2 mph74%29.92 "Hg10 mi
7:00 PM75 °FClear.2 mph65%29.92 "Hg10 mi
5:00 PM82 °FSunny.5 mph58%29.89 "Hg10 mi
4:00 PM82 °FPassing clouds.6 mph58%29.92 "HgN/A
3:00 PM82 °FPassing clouds.8 mph58%29.92 "HgN/A
2:00 PM82 °FPassing clouds.6 mph58%29.92 "HgN/A
1:00 PM82 °FPassing clouds.6 mph55%29.95 "HgN/A
12:00 PM84 °FSunny.5 mph51%29.95 "Hg10 mi
11:00 AM81 °FSunny.No wind54%29.98 "Hg10 mi
10:00 AM77 °FSunny.6 mph57%29.98 "Hg10 mi
9:00 AM70 °FSunny.6 mph73%29.98 "Hg10 mi
8:00 AM63 °FSunny.3 mph88%29.98 "Hg10 mi
7:00 AM59 °FSunny.3 mph88%29.95 "Hg10 mi
6:00 AM61 °FClear.3 mph88%29.95 "Hg10 mi
5:00 AM61 °FClear.2 mph83%29.98 "Hg10 mi
4:00 AM61 °FClear.3 mph88%29.95 "Hg10 mi
Weather by CustomWeather, © 2016

See weather overviewHow to use our weather pages